Time,TemperatureF,DewpointF,PressureIn,WindDirection,WindDirectionDegrees,WindSpeedMPH,WindSpeedGustMPH,Humidity,HourlyPrecipIn,Conditions,Clouds,dailyrainin,SoftwareType,DateUTC
2013-09-11 00:06:00,73.0,60.6,30.15,North,-999,0.0,0.0,65,0.00,,,-99.99,FreeWX 2.04,2013-09-11 04:06:00,
2013-09-11 00:16:00,72.9,60.4,30.15,North,-999,0.0,0.0,65,0.00,,,-99.99,FreeWX 2.04,2013-09-11 04:16:00,
2013-09-11 00:26:00,72.9,60.8,30.15,North,-999,0.0,0.0,66,0.00,,,-99.99,FreeWX 2.04,2013-09-11 04:26:00,
2013-09-11 00:36:00,72.5,60.1,30.15,North,-999,0.0,0.0,65,0.00,,,-99.99,FreeWX 2.04,2013-09-11 04:36:00,
2013-09-11 00:46:00,72.3,60.3,30.15,North,-999,0.0,0.0,66,0.00,,,-99.99,FreeWX 2.04,2013-09-11 04:46:00,
2013-09-11 00:56:00,72.1,60.1,30.15,North,-999,0.0,0.0,66,0.00,,,-99.99,FreeWX 2.04,2013-09-11 04:56:00,
2013-09-11 01:06:00,72.3,60.3,30.18,North,-999,0.0,0.0,66,0.00,,,-99.99,FreeWX 2.04,2013-09-11 05:06:00,
2013-09-11 01:16:00,72.1,60.6,30.18,North,-999,0.0,0.0,67,0.00,,,-99.99,FreeWX 2.04,2013-09-11 05:16:00,
2013-09-11 01:26:00,72.0,59.9,30.15,North,-999,0.0,0.0,66,0.00,,,-99.99,FreeWX 2.04,2013-09-11 05:26:00,
2013-09-11 01:36:00,71.8,59.7,30.15,North,-999,0.0,0.0,66,0.00,,,-99.99,FreeWX 2.04,2013-09-11 05:36:00,
2013-09-11 01:46:00,71.8,60.3,30.15,North,-999,0.0,0.0,67,0.00,,,-99.99,FreeWX 2.04,2013-09-11 05:46:00,
2013-09-11 01:56:00,71.8,60.3,30.15,North,-999,0.0,0.0,67,0.00,,,-99.99,FreeWX 2.04,2013-09-11 05:56:00,
2013-09-11 02:06:00,71.6,60.1,30.15,North,-999,0.0,0.0,67,0.00,,,-99.99,FreeWX 2.04,2013-09-11 06:06:00,
2013-09-11 02:16:00,71.4,59.9,30.15,North,-999,0.0,0.0,67,0.00,,,-99.99,FreeWX 2.04,2013-09-11 06:16:00,
2013-09-11 02:26:00,71.2,59.7,30.15,North,-999,0.0,0.0,67,0.00,,,-99.99,FreeWX 2.04,2013-09-11 06:26:00,
2013-09-11 02:36:00,71.2,59.7,30.15,North,-999,0.0,0.0,67,0.00,,,-99.99,FreeWX 2.04,2013-09-11 06:36:00,
2013-09-11 02:46:00,71.2,59.7,30.15,North,-999,0.0,0.0,67,0.00,,,-99.99,FreeWX 2.04,2013-09-11 06:46:00,
2013-09-11 02:56:00,71.1,59.5,30.15,North,-999,0.0,0.0,67,0.00,,,-99.99,FreeWX 2.04,2013-09-11 06:56:00,
2013-09-11 03:06:00,71.1,59.9,30.15,North,-999,0.0,0.0,68,0.00,,,-99.99,FreeWX 2.04,2013-09-11 07:06:00,
2013-09-11 03:16:00,70.7,59.2,30.15,North,-999,0.0,0.0,67,0.00,,,-99.99,FreeWX 2.04,2013-09-11 07:16:00,
2013-09-11 03:26:00,70.5,59.4,30.15,North,-999,0.0,0.0,68,0.00,,,-99.99,FreeWX 2.04,2013-09-11 07:26:00,
2013-09-11 03:36:00,70.3,59.2,30.15,North,-999,0.0,0.0,68,0.00,,,-99.99,FreeWX 2.04,2013-09-11 07:36:00,
2013-09-11 03:46:00,70.3,59.2,30.15,North,-999,0.0,0.0,68,0.00,,,-99.99,FreeWX 2.04,2013-09-11 07:46:00,
2013-09-11 03:56:00,70.5,59.4,30.15,North,-999,0.0,0.0,68,0.00,,,-99.99,FreeWX 2.04,2013-09-11 07:56:00,
2013-09-11 04:06:00,70.3,59.7,30.15,North,-999,0.0,0.0,69,0.00,,,-99.99,FreeWX 2.04,2013-09-11 08:06:00,
2013-09-11 04:16:00,70.2,59.2,30.15,North,-999,0.0,0.0,68,0.00,,,-99.99,FreeWX 2.04,2013-09-11 08:16:00,
2013-09-11 04:26:00,70.2,59.5,30.15,North,-999,0.0,0.0,69,0.00,,,-99.99,FreeWX 2.04,2013-09-11 08:26:00,
2013-09-11 04:36:00,69.8,58.8,30.15,North,-999,0.0,0.0,68,0.00,,,-99.99,FreeWX 2.04,2013-09-11 08:36:00,
2013-09-11 04:46:00,69.8,58.8,30.15,North,-999,0.0,0.0,68,0.00,,,-99.99,FreeWX 2.04,2013-09-11 08:46:00,
2013-09-11 04:56:00,69.6,58.6,30.15,North,-999,0.0,0.0,68,0.00,,,-99.99,FreeWX 2.04,2013-09-11 08:56:00,
2013-09-11 05:06:00,69.6,58.6,30.15,North,-999,0.0,0.0,68,0.00,,,-99.99,FreeWX 2.04,2013-09-11 09:06:00,
2013-09-11 05:16:00,69.4,58.8,30.15,North,-999,0.0,0.0,69,0.00,,,-99.99,FreeWX 2.04,2013-09-11 09:16:00,
2013-09-11 05:26:00,69.6,59.4,30.15,North,-999,0.0,0.0,70,0.00,,,-99.99,FreeWX 2.04,2013-09-11 09:26:00,
2013-09-11 05:36:00,69.6,59.4,30.15,North,-999,0.0,0.0,70,0.00,,,-99.99,FreeWX 2.04,2013-09-11 09:36:00,
2013-09-11 05:46:00,69.4,59.2,30.15,North,-999,0.0,0.0,70,0.00,,,-99.99,FreeWX 2.04,2013-09-11 09:46:00,
2013-09-11 05:56:00,69.4,59.5,30.15,North,-999,0.0,0.0,71,0.00,,,-99.99,FreeWX 2.04,2013-09-11 09:56:00,
2013-09-11 06:06:00,69.4,59.5,30.15,North,-999,0.0,0.0,71,0.00,,,-99.99,FreeWX 2.04,2013-09-11 10:06:00,
2013-09-11 06:16:00,69.4,60.1,30.15,North,-999,0.0,0.0,72,0.00,,,-99.99,FreeWX 2.04,2013-09-11 10:16:00,
2013-09-11 06:26:00,69.3,59.4,30.15,North,-999,0.0,0.0,71,0.00,,,-99.99,FreeWX 2.04,2013-09-11 10:26:00,
2013-09-11 06:36:00,69.1,59.4,30.18,North,-999,0.0,0.0,71,0.00,,,-99.99,FreeWX 2.04,2013-09-11 10:36:00,
2013-09-11 06:46:00,69.1,59.7,30.18,North,-999,0.0,0.0,72,0.00,,,-99.99,FreeWX 2.04,2013-09-11 10:46:00,
2013-09-11 06:56:00,69.1,59.7,30.18,North,-999,0.0,0.0,72,0.00,,,-99.99,FreeWX 2.04,2013-09-11 10:56:00,
2013-09-11 07:06:00,69.1,59.7,30.18,North,-999,0.0,0.0,72,0.00,,,-99.99,FreeWX 2.04,2013-09-11 11:06:00,
2013-09-11 07:16:00,69.1,59.7,30.18,North,-999,0.0,0.0,72,0.00,,,-99.99,FreeWX 2.04,2013-09-11 11:16:00,
2013-09-11 07:26:00,69.1,60.1,30.18,North,-999,0.0,0.0,73,0.00,,,-99.99,FreeWX 2.04,2013-09-11 11:26:00,
2013-09-11 07:36:00,69.3,60.3,30.18,North,-999,0.0,0.0,73,0.00,,,-99.99,FreeWX 2.04,2013-09-11 11:36:00,
2013-09-11 07:46:00,69.3,60.3,30.18,North,-999,0.0,0.0,73,0.00,,,-99.99,FreeWX 2.04,2013-09-11 11:46:00,
2013-09-11 07:56:00,69.4,60.4,30.18,North,-999,0.0,0.0,73,0.00,,,-99.99,FreeWX 2.04,2013-09-11 11:56:00,
2013-09-11 08:06:00,69.6,60.6,30.18,North,-999,0.0,0.0,73,0.00,,,-99.99,FreeWX 2.04,2013-09-11 12:06:00,
2013-09-11 08:16:00,70.0,61.3,30.18,North,-999,0.0,0.0,74,0.00,,,-99.99,FreeWX 2.04,2013-09-11 12:16:00,
2013-09-11 08:26:00,70.2,61.5,30.21,North,-999,0.0,0.0,74,0.00,,,-99.99,FreeWX 2.04,2013-09-11 12:26:00,
2013-09-11 08:36:00,70.9,62.6,30.21,North,-999,0.0,0.0,75,0.00,,,-99.99,FreeWX 2.04,2013-09-11 12:36:00,
2013-09-11 08:46:00,71.6,63.3,30.21,North,-999,0.0,0.0,75,0.00,,,-99.99,FreeWX 2.04,2013-09-11 12:46:00,
2013-09-11 08:56:00,72.0,63.7,30.21,North,-999,0.0,0.0,75,0.00,,,-99.99,FreeWX 2.04,2013-09-11 12:56:00,
2013-09-11 09:06:00,72.3,63.9,30.21,North,-999,0.0,0.0,75,0.00,,,-99.99,FreeWX 2.04,2013-09-11 13:06:00,
2013-09-11 09:16:00,72.9,64.0,30.21,North,-999,0.0,0.0,74,0.00,,,-99.99,FreeWX 2.04,2013-09-11 13:16:00,
2013-09-11 09:26:00,73.2,64.4,30.21,North,-999,0.0,0.0,74,0.00,,,-99.99,FreeWX 2.04,2013-09-11 13:26:00,
2013-09-11 09:36:00,73.9,65.1,30.21,North,-999,0.0,0.0,74,0.00,,,-99.99,FreeWX 2.04,2013-09-11 13:36:00,
2013-09-11 09:46:00,74.5,65.7,30.21,North,-999,0.0,0.0,74,0.00,,,-99.99,FreeWX 2.04,2013-09-11 13:46:00,
2013-09-11 09:56:00,75.4,65.7,30.21,North,-999,0.0,0.0,72,0.00,,,-99.99,FreeWX 2.04,2013-09-11 13:56:00,
2013-09-11 10:06:00,76.1,64.8,30.18,North,-999,0.0,0.0,68,0.00,,,-99.99,FreeWX 2.04,2013-09-11 14:06:00,
2013-09-11 10:16:00,77.5,66.2,30.18,North,-999,0.0,0.0,68,0.00,,,-99.99,FreeWX 2.04,2013-09-11 14:16:00,
2013-09-11 10:26:00,79.7,67.3,30.18,North,-999,0.0,0.0,66,0.00,,,-99.99,FreeWX 2.04,2013-09-11 14:26:00,
2013-09-11 10:36:00,81.0,60.6,30.18,North,-999,0.0,0.0,50,0.00,,,-99.99,FreeWX 2.04,2013-09-11 14:36:00,
2013-09-11 10:46:00,81.3,61.5,30.18,North,-999,0.0,0.0,51,0.00,,,-99.99,FreeWX 2.04,2013-09-11 14:46:00,
2013-09-11 10:56:00,81.9,57.7,30.18,North,-999,0.0,0.0,44,0.00,,,-99.99,FreeWX 2.04,2013-09-11 14:56:00,
2013-09-11 11:06:00,83.5,55.9,30.18,North,-999,0.0,0.0,39,0.00,,,-99.99,FreeWX 2.04,2013-09-11 15:06:00,
2013-09-11 11:16:00,83.7,54.7,30.18,North,-999,0.0,0.0,37,0.00,,,-99.99,FreeWX 2.04,2013-09-11 15:16:00,
2013-09-11 11:26:00,82.9,53.2,30.18,North,-999,0.0,0.0,36,0.00,,,-99.99,FreeWX 2.04,2013-09-11 15:26:00,
2013-09-11 11:36:00,82.9,54.7,30.18,North,-999,0.0,0.0,38,0.00,,,-99.99,FreeWX 2.04,2013-09-11 15:36:00,
2013-09-11 11:46:00,85.1,55.0,30.18,North,-999,0.0,0.0,36,0.00,,,-99.99,FreeWX 2.04,2013-09-11 15:46:00,
2013-09-11 11:56:00,85.3,51.3,30.18,North,-999,0.0,0.0,31,0.00,,,-99.99,FreeWX 2.04,2013-09-11 15:56:00,
2013-09-11 12:06:00,85.3,50.4,30.18,North,-999,0.0,0.0,30,0.00,,,-99.99,FreeWX 2.04,2013-09-11 16:06:00,
2013-09-11 12:16:00,86.4,53.1,30.18,North,-999,0.0,0.0,32,0.00,,,-99.99,FreeWX 2.04,2013-09-11 16:16:00,
2013-09-11 12:26:00,86.4,53.1,30.18,North,-999,0.0,0.0,32,0.00,,,-99.99,FreeWX 2.04,2013-09-11 16:26:00,
2013-09-11 12:36:00,87.1,51.8,30.15,North,-999,0.0,0.0,30,0.00,,,-99.99,FreeWX 2.04,2013-09-11 16:36:00,
2013-09-11 12:46:00,87.3,50.2,30.15,North,-999,0.0,0.0,28,0.00,,,-99.99,FreeWX 2.04,2013-09-11 16:46:00,
2013-09-11 12:56:00,88.3,51.1,30.15,North,-999,0.0,0.0,28,0.00,,,-99.99,FreeWX 2.04,2013-09-11 16:56:00,
2013-09-11 13:06:00,89.1,48.6,30.15,North,-999,0.0,0.0,25,0.00,,,-99.99,FreeWX 2.04,2013-09-11 17:06:00,
2013-09-11 13:16:00,89.6,50.2,30.15,North,-999,0.0,0.0,26,0.00,,,-99.99,FreeWX 2.04,2013-09-11 17:16:00,
2013-09-11 13:26:00,89.6,45.7,30.15,North,-999,0.0,0.0,22,0.00,,,-99.99,FreeWX 2.04,2013-09-11 17:26:00,
2013-09-11 13:36:00,89.6,45.7,30.12,North,-999,0.0,0.0,22,0.00,,,-99.99,FreeWX 2.04,2013-09-11 17:36:00,
2013-09-11 13:46:00,89.4,44.2,30.12,North,-999,0.0,0.0,21,0.00,,,-99.99,FreeWX 2.04,2013-09-11 17:46:00,
2013-09-11 13:56:00,89.8,45.9,30.12,North,-999,0.0,0.0,22,0.00,,,-99.99,FreeWX 2.04,2013-09-11 17:56:00,
2013-09-11 14:06:00,87.8,44.2,30.12,North,-999,0.0,0.0,22,0.00,,,-99.99,FreeWX 2.04,2013-09-11 18:06:00,
2013-09-11 14:16:00,86.5,47.5,30.12,North,-999,0.0,0.0,26,0.00,,,-99.99,FreeWX 2.04,2013-09-11 18:16:00,
2013-09-11 14:37:00,87.8,51.6,30.12,North,-999,0.0,0.0,29,0.00,,,-99.99,FreeWX 2.04,2013-09-11 18:37:00,
2013-09-11 14:47:00,91.2,44.4,30.12,North,-999,0.0,3.1,20,0.00,,,-99.99,FreeWX 2.04,2013-09-11 18:47:00,
2013-09-11 14:57:00,90.3,43.7,30.09,North,-999,0.0,0.0,20,0.00,,,-99.99,FreeWX 2.04,2013-09-11 18:57:00,
2013-09-11 15:07:00,87.4,50.4,30.09,North,-999,0.0,0.0,28,0.00,,,-99.99,FreeWX 2.04,2013-09-11 19:07:00,
2013-09-11 15:17:00,85.5,52.2,30.09,North,-999,0.0,0.0,32,0.00,,,-99.99,FreeWX 2.04,2013-09-11 19:17:00,
2013-09-11 15:27:00,88.0,51.6,30.09,North,-999,0.0,0.0,29,0.00,,,-99.99,FreeWX 2.04,2013-09-11 19:27:00,
2013-09-11 15:37:00,90.5,52.0,30.09,North,-999,0.0,0.0,27,0.00,,,-99.99,FreeWX 2.04,2013-09-11 19:37:00,
2013-09-11 15:47:00,91.2,43.2,30.09,North,-999,0.0,0.0,19,0.00,,,-99.99,FreeWX 2.04,2013-09-11 19:47:00,
2013-09-11 15:57:00,89.1,46.4,30.09,North,-999,0.0,0.0,23,0.00,,,-99.99,FreeWX 2.04,2013-09-11 19:57:00,
2013-09-11 16:07:00,89.6,45.7,30.09,North,-999,0.0,0.0,22,0.00,,,-99.99,FreeWX 2.04,2013-09-11 20:07:00,
2013-09-11 16:17:00,89.6,43.2,30.09,North,-999,0.0,0.0,20,0.00,,,-99.99,FreeWX 2.04,2013-09-11 20:17:00,
2013-09-11 16:27:00,88.7,47.3,30.09,North,-999,0.0,0.0,24,0.00,,,-99.99,FreeWX 2.04,2013-09-11 20:27:00,
2013-09-11 16:37:00,87.8,50.5,30.09,North,-999,0.0,0.0,28,0.00,,,-99.99,FreeWX 2.04,2013-09-11 20:37:00,
2013-09-11 16:47:00,87.1,50.0,30.09,North,-999,0.0,0.0,28,0.00,,,-99.99,FreeWX 2.04,2013-09-11 20:47:00,
2013-09-11 16:57:00,86.2,52.0,30.09,North,-999,0.0,0.0,31,0.00,,,-99.99,FreeWX 2.04,2013-09-11 20:57:00,
2013-09-11 17:07:00,86.0,51.8,30.09,North,-999,0.0,0.0,31,0.00,,,-99.99,FreeWX 2.04,2013-09-11 21:07:00,
2013-09-11 17:17:00,85.6,51.4,30.09,North,-999,0.0,0.0,31,0.00,,,-99.99,FreeWX 2.04,2013-09-11 21:17:00,
2013-09-11 17:27:00,85.3,51.3,30.06,North,-999,0.0,0.0,31,0.00,,,-99.99,FreeWX 2.04,2013-09-11 21:27:00,
2013-09-11 17:37:00,84.7,50.7,30.06,North,-999,0.0,0.0,31,0.00,,,-99.99,FreeWX 2.04,2013-09-11 21:37:00,
2013-09-11 17:47:00,84.2,52.7,30.06,North,-999,0.0,0.0,34,0.00,,,-99.99,FreeWX 2.04,2013-09-11 21:47:00,
2013-09-11 17:57:00,83.7,51.4,30.09,North,-999,0.0,0.0,33,0.00,,,-99.99,FreeWX 2.04,2013-09-11 21:57:00,
2013-09-11 18:07:00,83.1,51.1,30.09,North,-999,0.0,0.0,33,0.00,,,-99.99,FreeWX 2.04,2013-09-11 22:07:00,
2013-09-11 18:17:00,82.9,50.9,30.09,North,-999,0.0,0.0,33,0.00,,,-99.99,FreeWX 2.04,2013-09-11 22:17:00,
2013-09-11 18:27:00,82.8,52.3,30.09,North,-999,0.0,0.0,35,0.00,,,-99.99,FreeWX 2.04,2013-09-11 22:27:00,
2013-09-11 18:37:00,82.2,53.2,30.09,North,-999,0.0,0.0,37,0.00,,,-99.99,FreeWX 2.04,2013-09-11 22:37:00,
2013-09-11 18:47:00,81.9,53.1,30.09,North,-999,0.0,0.0,37,0.00,,,-99.99,FreeWX 2.04,2013-09-11 22:47:00,
2013-09-11 18:57:00,81.5,54.1,30.09,North,-999,0.0,0.0,39,0.00,,,-99.99,FreeWX 2.04,2013-09-11 22:57:00,
2013-09-11 19:07:00,81.0,53.6,30.09,North,-999,0.0,0.0,39,0.00,,,-99.99,FreeWX 2.04,2013-09-11 23:07:00,
2013-09-11 19:28:00,79.5,57.6,30.09,North,-999,0.0,0.0,47,0.00,,,-99.99,FreeWX 2.04,2013-09-11 23:28:00,
2013-09-11 19:48:00,77.9,59.4,30.09,North,-999,0.0,0.0,53,0.00,,,-99.99,FreeWX 2.04,2013-09-11 23:48:00,
2013-09-11 19:58:00,77.5,60.6,30.09,North,-999,0.0,0.0,56,0.00,,,-99.99,FreeWX 2.04,2013-09-11 23:58:00,
2013-09-11 20:08:00,77.0,60.1,30.09,North,-999,0.0,0.0,56,0.00,,,-99.99,FreeWX 2.04,2013-09-12 00:08:00,
2013-09-11 20:18:00,76.8,59.9,30.09,North,-999,0.0,0.0,56,0.00,,,-99.99,FreeWX 2.04,2013-09-12 00:18:00,
2013-09-11 20:28:00,76.6,60.3,30.09,North,-999,0.0,0.0,57,0.00,,,-99.99,FreeWX 2.04,2013-09-12 00:28:00,
2013-09-11 20:38:00,76.5,59.5,30.09,North,-999,0.0,0.0,56,0.00,,,-99.99,FreeWX 2.04,2013-09-12 00:38:00,
2013-09-11 20:48:00,76.1,59.7,30.09,North,-999,0.0,0.0,57,0.00,,,-99.99,FreeWX 2.04,2013-09-12 00:48:00,
2013-09-11 20:58:00,75.7,60.4,30.09,North,-999,0.0,0.0,59,0.00,,,-99.99,FreeWX 2.04,2013-09-12 00:58:00,
2013-09-11 21:08:00,75.6,61.5,30.09,North,-999,0.0,0.0,62,0.00,,,-99.99,FreeWX 2.04,2013-09-12 01:08:00,
2013-09-11 21:18:00,75.2,61.3,30.09,North,-999,0.0,0.0,62,0.00,,,-99.99,FreeWX 2.04,2013-09-12 01:18:00,
2013-09-11 21:28:00,75.2,60.8,30.09,North,-999,0.0,0.0,61,0.00,,,-99.99,FreeWX 2.04,2013-09-12 01:28:00,
2013-09-11 21:38:00,75.0,60.6,30.09,North,-999,0.0,0.0,61,0.00,,,-99.99,FreeWX 2.04,2013-09-12 01:38:00,
2013-09-11 21:48:00,74.7,60.8,30.09,North,-999,0.0,0.0,62,0.00,,,-99.99,FreeWX 2.04,2013-09-12 01:48:00,
2013-09-11 21:58:00,74.7,60.8,30.06,North,-999,0.0,0.0,62,0.00,,,-99.99,FreeWX 2.04,2013-09-12 01:58:00,
2013-09-11 22:08:00,74.5,60.6,30.06,North,-999,0.0,0.0,62,0.00,,,-99.99,FreeWX 2.04,2013-09-12 02:08:00,
2013-09-11 22:18:00,74.3,60.8,30.06,North,-999,0.0,0.0,63,0.00,,,-99.99,FreeWX 2.04,2013-09-12 02:18:00,
2013-09-11 22:28:00,74.1,60.6,30.06,North,-999,0.0,0.0,63,0.00,,,-99.99,FreeWX 2.04,2013-09-12 02:28:00,
2013-09-11 22:38:00,73.9,60.6,30.06,North,-999,0.0,0.0,63,0.00,,,-99.99,FreeWX 2.04,2013-09-12 02:38:00,
2013-09-11 22:48:00,73.8,60.4,30.06,North,-999,0.0,0.0,63,0.00,,,-99.99,FreeWX 2.04,2013-09-12 02:48:00,
2013-09-11 22:58:00,73.6,60.3,30.06,North,-999,0.0,0.0,63,0.00,,,-99.99,FreeWX 2.04,2013-09-12 02:58:00,
2013-09-11 23:08:00,73.4,60.1,30.09,North,-999,0.0,0.0,63,0.00,,,-99.99,FreeWX 2.04,2013-09-12 03:08:00,
2013-09-11 23:18:00,73.0,60.1,30.09,North,-999,0.0,0.0,64,0.00,,,-99.99,FreeWX 2.04,2013-09-12 03:18:00,
2013-09-11 23:28:00,73.0,60.1,30.06,North,-999,0.0,0.0,64,0.00,,,-99.99,FreeWX 2.04,2013-09-12 03:28:00,
2013-09-11 23:38:00,72.9,59.9,30.06,North,-999,0.0,0.0,64,0.00,,,-99.99,FreeWX 2.04,2013-09-12 03:38:00,
2013-09-11 23:48:00,72.9,60.4,30.06,North,-999,0.0,0.0,65,0.00,,,-99.99,FreeWX 2.04,2013-09-12 03:48:00,
2013-09-11 23:58:00,72.7,60.6,30.06,North,-999,0.0,0.0,66,0.00,,,-99.99,FreeWX 2.04,2013-09-12 03:58:00,